Regional Weather Roundup
Issued by NWS

Home | Current Version | Previous Version | Graphics & Text | Print | Product List | Glossary On
Versions: 1 2 3 4 5 6 7 8 9 10 11 12 13 14 15 16 17 18 19 20 21 22 23 24 25 26 27 28 29 30 31 32 33 34 35 36 37 38 39 40 41 42 43 44 45 46 47 48 49 50
000
ASUS43 KMKX 191811
RWRWI

WISCONSIN REGIONAL WEATHER ROUNDUP
NATIONAL WEATHER SERVICE MILWAUKEE/SULLIVAN WI
100 PM CDT SUN APR 19 2015

NOTE: "FAIR" INDICATES FEW OR NO CLOUDS BELOW 12,000 FEET WITH NO
SIGNIFICANT WEATHER AND/OR OBSTRUCTIONS TO VISIBILITY.

WIZ001-002-006>008-014>016-023>028-191900-
NORTHWEST WISCONSIN

CITY           SKY/WX    TMP DP  RH WIND       PRES   REMARKS
SUPERIOR ARPT  DRIZZLE   37  37  99 E13       29.66F WCI  29
6HR MIN TEMP:  36; 6HR MAX TEMP:  38; 6HR PCP:  0.20;

ASHLAND        CLOUDY    45  39  79 N8        29.67F
6HR MIN TEMP:  41; 6HR MAX TEMP:  49; 6HR PCP:  0.02;

HAYWARD        CLOUDY    52  38  58 S15       29.66F
6HR MIN TEMP:  43; 6HR MAX TEMP:  53; 6HR PCP:  0.01;

SIREN          CLOUDY    53  44  71 S10       29.63F
6HR MIN TEMP:  43; 6HR MAX TEMP:  53; 6HR PCP:  0.16;

CUMBERLAND     CLOUDY    52  41  66 S10       29.66F
RICE LAKE      CLOUDY    55  41  60 SE13      29.67F
6HR MIN TEMP:  44; 6HR MAX TEMP:  55;

CHETEK         CLOUDY    54  41  61 SE13      29.67F
6HR MIN TEMP:  46; 6HR MAX TEMP:  54;

LADYSMITH      CLOUDY    51  39  62 SE9       29.71F
6HR MIN TEMP:  45; 6HR MAX TEMP:  52;

EAU CLAIRE     LGT RAIN  54  42  64 SE6       29.67F
6HR MIN TEMP:  46; 6HR MAX TEMP:  54; 6HR PCP: TRACE;

MENOMONIE      CLOUDY    60  43  54 SE8       29.66F
6HR MIN TEMP:  46; 6HR MAX TEMP:  60;

NEW RICHMOND   CLOUDY    57  48  71 S12       29.64F
6HR MIN TEMP:  43; 6HR MAX TEMP:  57; 6HR PCP:  0.01;

OSCEOLA        CLOUDY    56  49  77 S12       29.66F
6HR MIN TEMP:  44; 6HR MAX TEMP:  56; 6HR PCP:  0.02;

$$

WIZ003>005-009-010-017-018-191900-
NORTH CENTRAL WISCONSIN

CITY           SKY/WX    TMP DP  RH WIND       PRES   REMARKS
MANITOWISH WTR CLOUDY    53  36  51 S10       29.69F
6HR MIN TEMP:  39; 6HR MAX TEMP:  53;

ARBOR VITAE    LGT RAIN  57  37  47 SE14      29.70F
6HR MIN TEMP:  42; 6HR MAX TEMP:  57; 6HR PCP:  0.01;

WOODRUFF       LGT RAIN  57  37  47 SE14      29.70F
6HR MIN TEMP:  42; 6HR MAX TEMP:  57; 6HR PCP:  0.01;

RHINELANDER    CLOUDY    55  34  45 S12       29.73F
6HR MIN TEMP:  45; 6HR MAX TEMP:  56;

EAGLE RIVER    CLOUDY    55  31  40 S8        29.72F
6HR MIN TEMP:  40; 6HR MAX TEMP:  55; 6HR PCP:  0.01;

LAND O LAKES   CLOUDY    56  32  40 SE10G16   29.73F
6HR MIN TEMP:  40; 6HR MAX TEMP:  56;

PHILLIPS       CLOUDY    47  43  85 CALM      29.69F
6HR MIN TEMP:  42; 6HR MAX TEMP:  49; 6HR PCP:  0.01;

TOMAHAWK       CLOUDY    56  35  45 SE7       29.72F
6HR MIN TEMP:  44; 6HR MAX TEMP:  57;

MEDFORD        LGT RAIN  54  37  52 SE6       29.70F
6HR MIN TEMP:  44; 6HR MAX TEMP:  54;

MERRILL        CLOUDY    57  36  44 S8        29.72F
6HR MIN TEMP:  45; 6HR MAX TEMP:  57;

$$

WIZ029-030-035-036-043>047-191900-
CENTRAL WISCONSIN

CITY           SKY/WX    TMP DP  RH WIND       PRES   REMARKS
WAUSAU         PTSUNNY   61  35  37 SE10      29.70F
6HR MIN TEMP:  45; 6HR MAX TEMP:  61;

MOSINEE        PTSUNNY   61  36  39 E13       29.73F
MARSHFIELD     CLOUDY    61  36  39 SE10      29.69F
6HR MIN TEMP:  45; 6HR MAX TEMP:  61;

STEVENS POINT  PTSUNNY   61  35  37 E10       29.71F
6HR MIN TEMP:  44; 6HR MAX TEMP:  61;

WAUPACA        MOSUNNY   67  33  28 E13G20    29.73F
6HR MIN TEMP:  49; 6HR MAX TEMP:  67;

WAUTOMA        PTSUNNY   68  36  30 E10       29.70F
6HR MIN TEMP:  48; 6HR MAX TEMP:  69;

WISC RAPIDS    CLOUDY    67  35  30 S12       29.70F
6HR MIN TEMP:  47; 6HR MAX TEMP:  67;

CAMP DOUGLAS   CLOUDY    64  37  36 VRB1      29.67F
$$

WIZ011>013-019>022-031-037>040-048>050-191900-
NORTHEAST WISCONSIN

CITY           SKY/WX    TMP DP  RH WIND       PRES   REMARKS
ANTIGO         PTSUNNY   56  35  44 SE14      29.74F
SHAWANO        MOSUNNY   61  32  34 E8G16     29.77F
6HR MIN TEMP:  46; 6HR MAX TEMP:  61;

OCONTO         PTSUNNY   52  33  47 E9        29.80F
6HR MIN TEMP:  44; 6HR MAX TEMP:  53; 6HR PCP:  0.01;

STURGEON BAY   PTSUNNY   55  34  44 E9        29.83F
6HR MIN TEMP:  41; 6HR MAX TEMP:  55;

GREEN BAY      MOSUNNY   61  34  36 SE14      29.77F
6HR MIN TEMP:  47; 6HR MAX TEMP:  62;

MANITOWOC      MOSUNNY   56  31  38 SE7       29.78F
6HR MIN TEMP:  42; 6HR MAX TEMP:  56;

APPLETON       MOSUNNY   61  30  31 SE18      29.76F
CLINTONVILLE   SUNNY     61  32  33 SE12      29.76F
OSHKOSH        MOSUNNY   64  35  34 SE17      29.72F
6HR MIN TEMP:  49; 6HR MAX TEMP:  64;

$$

WIZ032>034-041-042-053>061-191900-
SOUTHWEST WISCONSIN

CITY           SKY/WX    TMP DP  RH WIND       PRES   REMARKS
LA CROSSE      LGT RAIN  57  44  62 NW3       29.67F
6HR MIN TEMP:  52; 6HR MAX TEMP:  59; 6HR PCP:  0.01;

SPARTA         CLOUDY    62  37  40 SE5       29.68F
6HR MIN TEMP:  48; 6HR MAX TEMP:  62;

VIROQUA        CLOUDY    61  38  43 SE8       29.67F
6HR MIN TEMP:  51; 6HR MAX TEMP:  61;

BOSCOBEL       CLOUDY    70  42  36 SE6       29.65F
6HR MIN TEMP:  53; 6HR MAX TEMP:  70;

PRAIRIE DU CHI CLOUDY    64  41  43 CALM      29.64F
6HR MIN TEMP:  53; 6HR MAX TEMP:  64;

PLATTEVILLE    PTSUNNY   71  44  38 SE6       29.64F
6HR MIN TEMP:  51; 6HR MAX TEMP:  71;

$$

WIZ056-057-062-063-064-067-068-191900-
SOUTH CENTRAL WISCONSIN

CITY           SKY/WX    TMP DP  RH WIND       PRES   REMARKS
REEDSBURG      CLOUDY    66  41  39 SE6       29.67F
6HR MIN TEMP:  50; 6HR MAX TEMP:  66;

BARABOO/DELLS  CLOUDY    67  38  33 E8        29.67F
6HR MIN TEMP:  50; 6HR MAX TEMP:  67;

LONE ROCK      CLOUDY    71  43  36 E8        29.65F
6HR MIN TEMP:  52; 6HR MAX TEMP:  71;

MINERAL POINT  CLOUDY    72  37  28 CALM      29.65F
MADISON        CLOUDY    71  40  32 SE17      29.67F
6HR MIN TEMP:  50; 6HR MAX TEMP:  71;

MIDDLETON      PTSUNNY   71  36  27 E13       29.67F
6HR MIN TEMP:  51; 6HR MAX TEMP:  72;

WATERTOWN      MOSUNNY   68  39  34 SE15G21   29.69F
6HR MIN TEMP:  47; 6HR MAX TEMP:  69;

MONROE         PTSUNNY   72  43  35 E9        29.65F
JANESVILLE     SUNNY     73  37  27 SE17G23   29.66F
$$

WIZ051-052-058>065-066-070>072-191900-
SOUTHEAST WISCONSIN

CITY           SKY/WX    TMP DP  RH WIND       PRES   REMARKS
MILWAUKEE      PTSUNNY   52  35  52 NE8       29.74F
6HR MIN TEMP:  43; 6HR MAX TEMP:  53;

WAUKESHA       PTSUNNY   61  34  36 E14       29.75F
MILWAUKEE/TIMM SUNNY     57  28  33 E8        29.76F
RACINE         MOSUNNY   57  34  41 NE8       29.75F
6HR MIN TEMP:  44; 6HR MAX TEMP:  57;

BURLINGTON     MOSUNNY   64  35  34 E13G22    29.70F
6HR MIN TEMP:  46; 6HR MAX TEMP:  64;

KENOSHA        SUNNY     62  35  36 E13       29.72F
6HR MIN TEMP:  45; 6HR MAX TEMP:  62;

FOND DU LAC    MOSUNNY   64  34  32 SE18G25   29.72F
6HR MIN TEMP:  48; 6HR MAX TEMP:  65;

SHEBOYGAN      MOSUNNY   58  33  39 S9        29.77F
6HR MIN TEMP:  44; 6HR MAX TEMP:  58;

WEST BEND      MOSUNNY   57  30  35 SE13      29.75F
JUNEAU         MOSUNNY   64  37  36 SE21      29.71F
6HR MIN TEMP:  46; 6HR MAX TEMP:  65;

$$

LSZ147-162-191900-
LAKE SUPERIOR

STATION/POSITION TIME  TEMP    WIND        PRES    WAVE
                       AIR SEA DIR/SP/G            HT/PER
                 (UTC) (F)     (DEG/KT/KT) (MB)    (FT/S)
DEVILS ISLAND    1800   36      50/ 15/ 17 1006.0F
PORT WING        1700   38      40/ 13/ 16 1006.1
SAXON HARBOR     1700   56     180/  8/ 13 1005.1F
$$

LMZ867-665-643>646-191900-
LAKE MICHIGAN

STATION/POSITION TIME  TEMP    WIND        PRES    WAVE
                       AIR SEA DIR/SP/G            HT/PER
                 (UTC) (F)     (DEG/KT/KT) (MB)    (FT/S)


USA.gov is the U.S. government's official web portal to all federal, state and local government web resources and services.